GW3202 Weather Reports


Display with metric or nautical units.
time (UTC)temp
F
wind
direction
speed
MPH
gust
MPH
rain 1hr
in
rain 24hr
in
rain mn
in
humidity
%
barometer
mb
20260505073004 64 356 1.0 3.0 0.00 0.00 0.00 57 1020.2
20260505072005 64 105 1.0 2.0 0.00 0.00 0.00 56 1020.2
20260505071013 64 254 0.0 2.0 0.00 0.00 0.00 56 1020.2
20260505070006 65 331 1.0 5.0 0.00 0.00 0.00 55 1020.5
20260505065004 66 327 1.0 6.0 0.00 0.00 0.00 53 1020.5
20260505064004 68 29 1.0 5.0 0.00 0.00 0.00 53 1020.6
20260505063004 69 153 2.0 6.0 0.00 0.00 0.00 47 1020.6
20260505062004 69 329 3.0 7.0 0.00 0.00 0.00 46 1020.7
20260505055004 69 117 1.0 10.0 0.00 0.00 0.00 48 1020.6
20260505054004 69 29 1.0 13.0 0.00 0.00 0.00 47 1020.5
20260505053004 69 167 3.0 14.0 0.00 0.00 0.00 47 1020.5
20260505052004 69 152 5.0 23.0 0.00 0.00 0.00 44 1020.4
20260505041004 69 163 6.0 26.0 0.00 0.00 0.00 52 1019.6
20260505034004 71 152 12.0 23.0 0.00 0.00 0.00 57 1019.6
20260505033004 71 129 9.0 21.0 0.00 0.00 0.00 58 1019.5
20260505032004 72 155 6.0 21.0 0.00 0.00 0.00 59 1019.1
20260505031004 72 151 14.0 21.0 0.00 0.00 0.00 61 1019.2
20260505025004 74 142 10.0 18.0 0.00 0.00 0.00 59 1019.0
20260505024004 74 159 7.0 18.0 0.00 0.00 0.00 58 1018.7
20260505023004 74 167 5.0 22.0 0.00 0.00 0.00 58 1018.6
20260505022005 75 164 10.0 22.0 0.00 0.00 0.00 57 1018.4
20260505021004 74 170 6.0 22.0 0.00 0.00 0.00 57 1018.5
20260505015004 75 167 9.0 24.0 0.00 0.00 0.00 56 1018.2
20260505014004 75 132 12.0 24.0 0.00 0.00 0.00 56 1018.1
20260505013004 75 164 7.0 21.0 0.00 0.00 0.00 54 1018.0
20260505012004 75 148 6.0 21.0 0.00 0.00 0.00 53 1018.1
20260505011004 76 145 6.0 22.0 0.00 0.00 0.00 53 1017.9
20260505010004 77 166 9.0 23.0 0.00 0.00 0.00 51 1017.7
20260505003004 79 127 10.0 18.0 0.00 0.00 0.00 47 1017.6
20260505002005 80 143 9.0 24.0 0.00 0.00 0.00 46 1017.5
20260505001004 80 172 6.0 24.0 0.00 0.00 0.00 46 1017.5
20260505000004 81 180 10.0 23.0 0.00 0.00 0.00 46 1017.5
20260504235005 81 181 6.0 24.0 0.00 0.00 0.00 45 1017.4
20260504234005 82 158 6.0 22.0 0.00 0.00 0.00 45 1017.4
20260504233006 83 189 5.0 20.0 0.00 0.00 0.00 44 1017.3
20260504232057 84 149 8.0 18.0 0.00 0.00 0.00 44 1017.3
20260504231005 84 225 6.0 18.0 0.00 0.00 0.00 43 1017.6
20260504230005 85 214 3.0 20.0 0.00 0.00 0.00 43 1017.5
20260504225004 85 158 7.0 25.0 0.00 0.00 0.00 43 1017.8
20260504224004 85 160 7.0 20.0 0.00 0.00 0.00 42 1017.6
20260504221004 86 155 10.0 21.0 0.00 0.00 0.00 43 1017.7
20260504220004 86 137 9.0 18.0 0.00 0.00 0.00 44 1017.9
20260504215004 86 93 5.0 18.0 0.00 0.00 0.00 42 1018.0
20260504214004 86 203 9.0 23.0 0.00 0.00 0.00 39 1018.2
20260504210004 86 243 4.0 17.0 0.00 0.00 0.00 33 1018.3
20260504205004 86 148 10.0 17.0 0.00 0.00 0.00 34 1018.4
20260504204004 87 195 4.0 22.0 0.00 0.00 0.00 35 1018.7
20260504203005 86 162 9.0 22.0 0.00 0.00 0.00 36 1018.7
20260504202005 87 253 4.0 21.0 0.00 0.00 0.00 35 1018.8
20260504201004 85 196 2.0 21.0 0.00 0.00 0.00 38 1019.1
20260504200004 85 180 4.0 24.0 0.00 0.00 0.00 37 1019.3
20260504195004 85 167 5.0 22.0 0.00 0.00 0.00 38 1019.2
20260504194004 84 158 7.0 18.0 0.00 0.00 0.00 39 1019.4
20260504193004 86 172 7.0 16.0 0.00 0.00 0.00 38 1019.6
20260504192004 85 145 3.0 16.0 0.00 0.00 0.00 38 1019.6
20260504190018 84 133 7.0 18.0 0.00 0.00 0.00 40 1019.8
20260504185005 83 158 10.0 22.0 0.00 0.00 0.00 41 1020.0
20260504184010 84 178 7.0 22.0 0.00 0.00 0.00 41 1020.0
20260504183011 83 121 12.0 22.0 0.00 0.00 0.00 41 1020.1
20260504182009 83 168 5.0 15.0 0.00 0.00 0.00 41 1020.4
20260504180003 81 139 7.0 15.0 0.00 0.00 0.00 42 1020.7
20260504175004 82 268 3.0 13.0 0.00 0.00 0.00 43 1020.8
20260504174002 82 176 5.0 12.0 0.00 0.00 0.00 44 1021.0
20260504173002 81 181 2.0 13.0 0.00 0.00 0.00 43 1021.1
20260504172003 82 179 2.0 13.0 0.00 0.00 0.00 43 1021.3
20260504171004 82 211 2.0 12.0 0.00 0.00 0.00 44 1021.4
20260504151002 71 244 1.0 5.0 0.00 0.00 0.00 72 1022.1
20260504082003 62 81 0.0 2.0 0.00 0.00 0.00 93 1020.8
20260504081002 63 112 2.0 2.0 0.00 0.00 0.00 93 1020.9